Wind_Speed
32 33 34 35 37 38 36 31 30 29 29 28 27 27 27 26 26 26 24 23 21 20 19 19 18 17 16 16 16 15 15 14 13 13 13 12 12 11 11 10 9 9 8 8 7 7 7 7 7
34 34 36 37 39 39 37 33 33 32 31 31 31 30 30 29 28 28 27 26 24 22 22 21 20 20 18 17 17 16 16 16 15 15 14 14 13 13 12 12 11 10 10 9 9 9 8 9 9
35 36 38 39 40 39 36 35 35 35 35 35 34 34 32 31 31 30 29 28 27 26 24 23 23 22 21 20 19 18 18 18 17 17 16 15 15 15 14 13 13 12 11 11 10 10 10 10 10
36 38 39 41 40 38 38 37 36 36 36 36 37 36 35 33 33 33 31 31 30 28 27 26 25 24 23 22 21 21 20 20 18 18 18 17 17 16 15 15 14 14 13 12 12 12 12 12 12
37 38 39 40 39 38 38 38 37 38 38 37 37 38 36 35 35 35 34 33 32 31 29 29 27 26 25 25 24 23 22 22 20 19 19 19 19 18 17 17 16 15 15 14 14 14 13 13 13
37 39 40 39 38 39 39 39 39 40 39 38 39 40 38 37 37 36 36 35 34 33 32 31 29 28 28 27 26 25 24 24 22 22 21 21 20 20 19 19 18 18 17 17 16 16 15 15 15
38 39 40 39 39 40 40 42 42 42 41 40 40 41 40 39 39 38 37 36 35 35 34 33 32 31 30 29 28 28 26 26 25 24 23 23 22 22 21 21 20 20 20 19 18 18 18 18 17
38 39 39 40 40 41 41 43 43 43 42 42 41 42 41 41 40 39 38 37 36 36 36 35 34 33 32 31 30 29 29 28 27 26 26 25 24 24 24 23 23 22 22 22 21 20 20 20 20
38 39 40 41 42 42 43 44 44 43 44 42 42 42 41 40 40 40 38 38 37 37 36 36 36 35 34 33 32 31 31 30 30 29 28 27 27 26 26 26 25 25 24 24 23 23 22 22 22
37 39 40 42 43 44 44 46 45 44 45 44 43 43 41 41 41 41 39 38 38 38 37 37 37 36 36 35 34 33 33 32 32 31 30 30 29 28 28 28 27 27 27 26 25 25 25 24 23
36 38 39 41 43 43 44 46 46 45 45 45 44 42 42 42 42 41 40 39 39 39 39 38 38 37 37 36 35 35 34 34 33 33 32 31 31 30 29 29 29 28 28 28 28 27 26 26 26
35 36 39 41 41 42 43 45 46 46 45 44 44 43 42 42 42 41 41 40 41 41 40 40 39 38 38 37 36 36 36 35 35 34 33 33 32 32 32 31 30 30 30 29 29 29 28 28 28
34 34 37 38 40 41 42 42 42 44 44 43 44 43 42 42 41 41 41 42 42 42 41 41 40 40 39 38 37 36 37 37 36 35 34 34 34 33 34 33 32 32 32 32 31 30 30 29 29
31 33 34 36 37 39 39 40 40 40 41 42 42 42 42 43 42 42 42 42 43 42 42 41 41 41 40 39 38 38 38 38 37 36 36 36 36 36 36 35 34 34 34 33 32 32 31 31 31
29 31 31 33 34 35 37 37 37 37 38 39 40 42 42 42 42 42 42 41 42 42 42 42 42 43 42 41 40 39 39 38 37 36 37 37 36 36 37 36 36 36 35 34 34 33 33 33 32
28 29 29 30 31 33 35 36 35 35 36 37 38 40 41 42 42 41 41 41 41 43 43 43 43 43 43 42 42 41 40 39 38 37 37 38 38 38 38 38 38 37 37 36 35 34 35 35 34
26 26 27 28 29 32 34 35 32 33 34 35 36 37 38 41 42 42 41 42 42 43 44 44 43 43 44 43 43 42 41 40 39 39 38 37 38 39 38 38 39 38 38 38 37 37 36 35 35
22 24 25 26 28 30 32 34 32 32 33 34 35 37 37 38 40 42 42 42 42 44 45 45 45 45 45 44 44 42 42 42 40 40 40 39 38 39 40 39 40 40 39 39 39 39 39 37 36
21 23 24 25 26 28 30 32 32 31 32 32 35 36 37 38 39 41 42 43 43 43 45 45 46 45 45 44 44 43 43 42 42 42 40 41 40 39 39 40 42 41 41 41 41 41 40 39 38
21 23 24 24 25 27 29 30 30 30 30 31 33 35 36 37 38 39 41 42 43 43 44 45 44 45 45 45 44 44 44 44 43 42 42 42 42 41 41 40 41 42 42 43 42 41 41 40 40
20 21 22 24 25 26 28 28 29 29 30 31 33 34 35 37 38 39 40 40 41 43 43 44 45 45 45 45 45 45 46 46 45 44 43 43 42 42 42 42 42 43 43 43 43 43 42 41 40
19 20 21 22 23 25 26 27 27 29 30 31 31 33 35 37 39 40 40 40 41 41 42 44 45 45 45 45 45 46 47 46 44 44 43 42 42 41 40 40 41 41 42 42 43 43 42 41 41
18 19 20 20 22 24 25 27 26 28 29 30 30 32 33 35 37 39 40 41 42 42 41 42 44 45 45 45 45 46 45 46 45 44 45 44 42 41 40 39 39 39 40 41 41 41 41 40 40
17 17 17 19 21 23 24 26 27 27 28 29 29 30 31 33 35 37 38 38 39 41 42 41 43 45 45 45 46 45 44 44 44 44 43 43 42 41 40 39 39 39 40 40 40 40 41 41 42
17 15 15 17 19 22 22 23 26 26 27 28 28 28 30 31 33 36 36 37 37 38 40 41 42 43 44 44 45 47 45 42 42 43 43 43 42 42 41 39 39 39 40 40 41 41 41 42 42
15 15 15 16 17 17 19 22 23 25 25 26 27 28 29 30 31 34 35 37 37 38 39 40 42 42 42 43 43 44 45 45 43 43 43 43 44 43 42 41 40 41 41 41 41 41 41 41 41
15 14 14 16 17 17 18 20 23 24 25 26 27 27 28 29 30 32 35 37 38 38 39 39 40 42 42 42 43 43 42 43 43 43 43 43 44 44 43 43 43 43 42 42 42 42 42 42 42
15 14 14 15 17 19 19 19 21 22 24 26 27 27 28 29 30 31 34 35 37 38 39 40 40 41 42 42 42 43 42 43 44 43 43 43 44 43 43 43 43 42 42 42 42 42 41 42 41
16 16 17 17 17 19 20 19 21 22 23 24 25 27 28 29 30 31 33 33 34 36 37 39 40 41 42 43 43 43 42 42 42 40 40 40 42 42 42 42 42 41 41 41 41 41 41 42 42
17 17 17 18 19 20 20 21 21 22 22 23 23 24 26 28 29 31 31 32 33 34 35 37 38 39 40 40 41 41 41 41 41 40 40 39 39 40 41 40 40 40 40 41 41 42 41 41 41
Wind_Direction
247 247 247 246 246 246 246 246 246 244 244 244 244 244 245 246 249 251 251 251 250 249 247 246 246 245 245 245 245 245 244 243 243 243 242 240 241 242 244 246 247 250 254 257 261 268 274 283 291
248 247 247 246 246 247 247 247 247 245 245 244 244 244 245 246 248 250 250 250 249 248 247 245 244 244 243 244 246 246 245 245 245 245 245 243 243 243 245 247 250 253 257 259 263 269 275 282 288
247 247 248 247 247 248 249 248 248 247 245 244 245 244 245 246 247 249 249 249 248 247 246 244 243 243 242 243 245 246 248 248 246 245 246 246 246 246 246 248 250 253 256 260 265 269 275 281 286
247 248 248 248 249 249 249 249 249 248 246 245 246 245 244 245 247 248 248 248 247 246 245 244 243 242 241 242 244 246 248 248 248 247 247 248 248 247 248 250 251 253 256 260 264 269 274 279 283
248 248 249 249 249 248 248 248 247 248 246 245 245 246 244 244 245 246 246 247 246 245 244 243 241 240 241 242 243 244 247 248 247 248 248 249 250 250 252 253 254 256 258 260 264 269 274 277 280
248 248 249 250 250 249 248 247 246 246 245 244 244 245 245 245 244 244 244 245 245 244 242 242 240 240 240 242 243 244 246 248 247 247 248 249 250 251 253 255 256 257 260 262 265 269 274 277 280
249 249 249 250 250 249 248 247 247 245 245 244 244 245 245 245 246 244 243 243 243 242 242 242 241 240 241 242 244 245 246 248 249 248 247 248 250 251 253 254 256 258 260 262 265 268 272 276 279
250 249 248 248 248 248 247 247 246 245 245 245 244 245 245 245 246 245 242 242 241 241 241 241 241 240 241 242 245 247 247 248 250 250 250 250 251 252 254 256 258 260 261 264 266 269 272 275 278
254 251 250 249 249 248 247 246 245 245 245 245 245 246 246 247 246 245 242 241 241 240 240 240 241 240 241 242 244 246 247 249 250 251 251 252 252 254 255 257 259 261 262 265 267 270 272 275 278
255 253 252 251 249 248 247 247 245 245 246 246 245 244 245 246 246 245 243 240 240 240 239 240 240 240 241 242 244 245 247 249 250 251 252 252 253 254 256 258 260 261 263 264 267 269 272 274 276
256 255 253 250 250 250 248 247 246 244 245 245 244 243 244 245 245 244 243 240 238 238 238 239 240 241 242 243 244 246 247 248 250 251 252 253 254 254 255 257 259 261 263 264 266 269 271 274 275
258 256 255 253 251 251 249 248 247 245 245 244 243 242 241 243 243 243 242 241 237 236 237 238 239 241 242 243 245 246 248 249 250 251 251 252 254 255 256 257 259 261 263 264 265 267 270 272 274
260 260 257 254 251 250 249 248 248 246 244 243 242 241 240 241 242 241 241 240 237 235 236 238 239 240 242 243 245 246 248 249 249 250 250 252 254 256 257 258 259 261 263 264 265 266 268 270 272
261 261 257 254 252 251 248 247 247 246 245 244 242 241 240 240 241 240 239 239 237 235 235 237 240 241 241 243 245 246 247 248 248 250 251 252 254 255 256 258 259 260 262 263 265 266 267 269 271
262 260 255 251 251 250 249 245 246 247 246 245 243 241 240 240 240 241 239 238 237 236 236 237 240 241 242 242 245 246 246 248 250 251 252 253 254 255 257 258 258 260 261 263 264 266 267 268 270
261 259 253 251 252 250 249 246 245 246 247 246 245 243 241 240 240 241 240 237 236 236 236 237 239 241 242 243 244 245 246 248 249 251 253 253 254 255 256 258 258 259 260 262 264 265 266 267 269
261 257 255 253 253 251 249 247 245 247 247 246 246 246 243 242 240 241 241 239 236 236 236 238 240 241 241 242 242 244 246 247 249 251 254 256 256 256 256 258 258 258 259 261 263 264 265 267 269
262 260 259 258 254 253 251 248 247 247 247 247 246 247 246 244 243 242 241 239 238 236 237 239 240 240 241 241 242 243 245 247 249 252 253 255 258 257 256 256 257 257 258 261 263 264 265 266 269
264 263 261 260 258 256 255 250 247 246 247 248 249 249 248 247 246 245 242 240 239 239 239 240 240 240 240 240 243 243 245 248 250 252 253 254 256 257 256 256 257 257 259 260 261 263 265 265 268
270 266 262 260 259 257 257 252 248 247 248 250 252 250 250 248 246 245 244 241 240 240 240 241 242 242 241 241 243 245 247 248 249 252 254 256 256 256 257 259 257 257 258 259 260 262 264 265 268
272 268 265 263 259 258 257 252 250 249 250 252 253 252 250 248 246 245 244 243 243 243 243 242 242 242 242 242 244 247 249 250 250 251 253 256 256 256 258 259 258 257 257 258 260 261 263 264 267
275 272 267 264 261 257 256 255 253 252 252 254 254 252 251 251 250 246 244 245 245 243 243 243 242 243 243 244 245 248 249 250 252 253 254 256 257 257 258 258 258 258 257 257 260 261 263 264 266
279 275 269 263 259 257 257 259 257 257 255 255 255 253 252 251 250 247 246 246 247 245 245 244 242 242 243 244 246 248 250 251 252 254 255 256 259 260 260 258 257 258 259 260 262 261 263 264 266
283 277 269 263 260 258 258 260 261 260 258 259 259 255 252 252 250 246 245 246 246 245 244 243 243 243 244 245 246 248 250 251 251 253 255 256 258 258 258 258 258 258 260 261 262 262 264 266 267
283 278 276 270 263 260 258 260 263 264 263 262 260 257 253 253 251 248 246 247 246 245 243 244 243 243 245 246 248 249 250 252 252 255 255 256 256 256 257 257 258 260 260 260 261 262 264 265 266
284 279 280 277 275 270 263 264 264 265 265 264 261 259 256 256 254 250 249 248 247 246 245 245 245 244 245 247 248 249 251 252 254 256 256 256 257 258 257 259 260 261 262 262 261 262 264 266 267
285 281 282 277 275 278 276 273 268 267 267 265 262 259 257 258 256 254 251 249 247 245 246 246 247 246 247 249 249 249 253 253 254 256 256 256 257 257 258 260 262 263 263 264 264 264 265 266 267
286 281 280 277 278 279 279 281 276 270 269 266 262 261 259 259 257 255 253 250 248 245 247 248 248 248 248 249 250 251 252 253 253 255 256 257 258 258 259 261 262 264 264 265 265 265 265 266 268
284 278 280 279 278 281 282 285 283 279 274 270 267 264 262 262 260 258 255 251 248 248 249 249 249 249 250 251 252 252 253 255 254 256 259 259 258 258 259 260 261 262 264 265 265 265 265 267 269
286 280 278 278 279 281 284 284 283 281 277 274 270 267 265 264 262 260 257 253 251 250 250 251 249 250 252 252 252 253 254 255 256 258 259 261 261 260 260 260 260 262 264 265 265 266 267 269 270
Height
5803 5805 5807 5809 5810 5811 5814 5821 5824 5827 5829 5831 5833 5835 5837 5838 5840 5843 5843 5844 5846 5848 5850 5851 5852 5853 5855 5856 5857 5858 5859 5860 5861 5861 5862 5863 5863 5864 5864 5864 5864 5865 5865 5865 5865 5865 5865 5865 5865
5796 5798 5800 5801 5802 5804 5809 5815 5817 5821 5823 5825 5827 5829 5831 5833 5834 5835 5838 5840 5842 5844 5846 5847 5848 5850 5851 5853 5854 5856 5856 5857 5858 5859 5860 5860 5861 5861 5862 5862 5863 5863 5863 5863 5864 5864 5864 5863 5863
5788 5790 5791 5792 5794 5798 5804 5808 5810 5813 5816 5818 5821 5823 5825 5827 5828 5830 5832 5834 5837 5839 5841 5843 5844 5846 5847 5849 5851 5852 5853 5854 5855 5856 5857 5857 5858 5859 5859 5860 5860 5861 5861 5861 5861 5862 5862 5861 5861
5779 5781 5782 5784 5787 5793 5796 5800 5803 5805 5808 5811 5813 5816 5819 5821 5822 5823 5826 5828 5831 5833 5835 5837 5839 5841 5843 5845 5846 5848 5849 5850 5851 5853 5853 5854 5855 5856 5856 5857 5858 5858 5858 5859 5859 5859 5859 5859 5859
5770 5771 5773 5775 5780 5785 5788 5791 5794 5796 5800 5803 5805 5808 5812 5814 5815 5817 5819 5821 5824 5827 5829 5831 5834 5836 5838 5840 5842 5843 5845 5846 5848 5849 5850 5851 5852 5852 5853 5854 5855 5855 5856 5856 5856 5856 5856 5856 5856
5760 5762 5764 5767 5772 5776 5780 5782 5784 5787 5791 5795 5797 5800 5803 5806 5808 5810 5812 5814 5817 5820 5822 5825 5828 5830 5833 5835 5837 5838 5840 5842 5843 5844 5846 5847 5848 5849 5850 5850 5851 5852 5852 5853 5853 5853 5853 5853 5853
5751 5752 5755 5759 5763 5767 5770 5772 5775 5778 5782 5785 5788 5791 5795 5798 5799 5802 5804 5807 5810 5813 5816 5818 5821 5824 5827 5829 5831 5833 5835 5837 5838 5839 5841 5842 5843 5844 5845 5846 5847 5848 5848 5849 5849 5849 5850 5850 5850
5741 5743 5746 5749 5753 5757 5761 5762 5765 5769 5772 5775 5779 5781 5785 5788 5791 5793 5796 5799 5802 5805 5808 5811 5815 5818 5821 5823 5825 5828 5829 5831 5833 5834 5836 5837 5838 5839 5840 5841 5842 5843 5844 5844 5845 5845 5846 5846 5845
5731 5734 5736 5741 5743 5747 5749 5752 5755 5759 5762 5766 5769 5771 5775 5777 5781 5784 5787 5791 5794 5797 5801 5804 5807 5811 5814 5817 5819 5821 5823 5825 5827 5828 5830 5831 5833 5834 5835 5836 5837 5838 5839 5839 5840 5840 5841 5841 5841
5721 5723 5728 5731 5732 5735 5738 5741 5745 5749 5752 5756 5759 5762 5765 5767 5770 5773 5778 5782 5786 5789 5793 5796 5800 5803 5807 5810 5813 5815 5817 5819 5821 5822 5824 5825 5826 5828 5829 5830 5831 5832 5833 5834 5834 5835 5836 5836 5836
5711 5714 5718 5719 5721 5724 5727 5730 5734 5738 5741 5745 5749 5752 5755 5757 5760 5764 5768 5773 5777 5781 5785 5789 5792 5796 5799 5802 5805 5808 5810 5812 5814 5816 5817 5819 5820 5821 5822 5824 5825 5826 5827 5828 5829 5829 5830 5830 5831
5702 5704 5707 5709 5711 5713 5716 5719 5723 5726 5730 5735 5738 5741 5745 5747 5751 5754 5759 5764 5768 5772 5776 5780 5784 5788 5792 5795 5797 5800 5802 5804 5806 5808 5810 5811 5813 5815 5816 5817 5818 5819 5820 5821 5822 5823 5824 5824 5825
5693 5696 5697 5698 5700 5702 5705 5708 5712 5715 5719 5723 5727 5731 5735 5738 5742 5745 5749 5754 5759 5763 5768 5772 5776 5780 5783 5787 5790 5792 5794 5796 5799 5800 5802 5804 5806 5807 5809 5810 5811 5812 5813 5814 5815 5816 5817 5818 5818
5686 5687 5688 5688 5690 5692 5695 5699 5701 5706 5709 5712 5716 5721 5725 5729 5733 5736 5740 5745 5750 5755 5759 5764 5767 5771 5775 5779 5782 5784 5786 5788 5790 5792 5794 5796 5798 5799 5801 5802 5803 5804 5806 5807 5808 5809 5810 5811 5811
5678 5679 5679 5680 5681 5683 5686 5689 5693 5698 5700 5703 5707 5711 5715 5719 5724 5727 5731 5736 5741 5746 5751 5755 5759 5763 5766 5770 5773 5776 5778 5780 5782 5784 5786 5788 5788 5790 5792 5794 5795 5796 5798 5799 5800 5801 5802 5803 5804
5670 5670 5671 5673 5674 5676 5679 5682 5687 5689 5692 5695 5698 5702 5706 5710 5715 5718 5722 5727 5731 5737 5742 5746 5750 5754 5757 5761 5764 5767 5769 5772 5774 5775 5777 5779 5780 5781 5783 5785 5787 5788 5789 5791 5792 5793 5794 5795 5796
5663 5663 5665 5668 5669 5670 5671 5675 5680 5682 5685 5688 5691 5694 5698 5702 5706 5709 5713 5718 5723 5728 5733 5737 5741 5744 5748 5752 5755 5758 5761 5763 5765 5767 5769 5770 5771 5773 5774 5776 5778 5779 5781 5782 5784 5785 5786 5787 5788
5659 5659 5660 5662 5663 5664 5665 5669 5673 5675 5678 5681 5684 5687 5690 5693 5697 5701 5705 5710 5715 5720 5724 5728 5731 5735 5739 5743 5746 5749 5752 5754 5757 5758 5760 5762 5763 5764 5766 5767 5768 5770 5772 5774 5775 5777 5778 5779 5780
5654 5655 5656 5657 5657 5657 5659 5662 5667 5669 5672 5674 5677 5680 5683 5686 5689 5693 5697 5701 5706 5710 5715 5719 5722 5726 5730 5734 5738 5741 5743 5746 5748 5750 5752 5753 5754 5755 5756 5758 5759 5761 5763 5765 5767 5768 5770 5771 5772
5649 5649 5650 5651 5652 5652 5653 5656 5660 5663 5666 5668 5671 5673 5676 5679 5682 5685 5689 5693 5697 5702 5706 5709 5713 5717 5721 5725 5729 5732 5735 5737 5739 5741 5743 5744 5745 5747 5748 5749 5750 5752 5754 5756 5757 5759 5761 5762 5763
5645 5645 5646 5646 5647 5647 5648 5650 5653 5657 5659 5662 5664 5667 5669 5671 5674 5678 5681 5685 5689 5693 5697 5701 5704 5708 5712 5716 5719 5723 5726 5728 5730 5732 5733 5734 5736 5737 5738 5740 5741 5742 5744 5746 5748 5750 5751 5753 5754
5641 5640 5640 5640 5641 5642 5643 5644 5648 5650 5653 5655 5657 5660 5662 5664 5666 5670 5673 5677 5680 5684 5688 5692 5695 5699 5703 5706 5710 5713 5716 5718 5721 5723 5724 5725 5726 5727 5729 5731 5731 5733 5735 5737 5739 5741 5742 5743 5744
5636 5635 5635 5636 5636 5637 5638 5639 5643 5644 5646 5649 5651 5653 5654 5656 5659 5662 5665 5669 5671 5674 5678 5682 5686 5690 5694 5697 5701 5703 5705 5708 5711 5713 5715 5717 5718 5719 5720 5721 5723 5725 5727 5729 5730 5732 5733 5734 5735
5632 5631 5631 5631 5631 5632 5635 5635 5637 5638 5641 5643 5644 5646 5648 5649 5652 5654 5657 5660 5663 5666 5669 5674 5678 5681 5685 5688 5691 5693 5695 5698 5701 5703 5705 5707 5709 5710 5711 5712 5714 5716 5718 5720 5721 5723 5724 5725 5726
5628 5628 5627 5626 5626 5628 5630 5630 5632 5634 5635 5636 5638 5640 5641 5643 5645 5647 5649 5652 5655 5658 5661 5665 5668 5672 5675 5679 5682 5684 5686 5688 5691 5694 5696 5698 5699 5701 5702 5704 5706 5708 5709 5710 5712 5713 5715 5716 5717
5625 5625 5625 5624 5624 5625 5625 5625 5628 5629 5630 5630 5632 5633 5635 5636 5638 5640 5642 5644 5647 5650 5653 5656 5659 5662 5666 5669 5672 5674 5677 5680 5682 5685 5686 5688 5690 5691 5694 5695 5696 5698 5700 5701 5702 5704 5705 5706 5707
5621 5621 5622 5621 5621 5621 5621 5622 5622 5623 5624 5625 5626 5627 5628 5630 5631 5633 5634 5636 5639 5641 5644 5647 5650 5653 5656 5660 5662 5665 5667 5670 5673 5675 5676 5678 5680 5682 5684 5686 5687 5689 5690 5691 5693 5694 5695 5696 5697
5619 5619 5619 5618 5617 5617 5618 5618 5618 5618 5618 5619 5620 5621 5622 5624 5625 5625 5627 5628 5631 5633 5636 5639 5641 5644 5647 5650 5653 5656 5658 5661 5663 5665 5667 5669 5670 5672 5674 5676 5678 5679 5680 5682 5683 5684 5686 5687 5687
5617 5616 5615 5615 5614 5613 5613 5616 5614 5613 5613 5614 5614 5615 5616 5616 5617 5618 5619 5621 5623 5625 5628 5630 5633 5635 5638 5641 5644 5647 5649 5651 5654 5656 5657 5659 5660 5662 5665 5667 5668 5670 5671 5672 5673 5675 5676 5677 5678
5613 5612 5612 5612 5611 5610 5609 5613 5609 5608 5608 5608 5608 5608 5609 5610 5611 5612 5612 5614 5615 5617 5620 5622 5624 5627 5629 5632 5634 5637 5640 5642 5644 5646 5648 5649 5651 5653 5655 5657 5659 5660 5662 5663 5664 5665 5666 5667 5668